Weather History for KMGW - June, 2012

Change the Weather History Date:

Monday, June 4, 2012

  Actual Average Record
Temperature  
Mean Temperature 63 °F 66 °F  
Max Temperature 71 °F 77 °F 88 °F (1960)
Min Temperature 54 °F 56 °F 39 °F (1969)
Degree Days  
Heating Degree Days 2 2  
Month to date heating degree days 8 9  
Since 1 June heating degree days 8 9  
Since 1 July heating degree days 4134 5162  
Cooling Degree Days 0 3  
Month to date cooling degree days 0 12  
Year to date cooling degree days 177 79  
Since 1 June cooling degree days 0 12  
Growing Degree Days 12 (Base 50)    
Moisture  
Dew Point 48 °F    
Average Humidity 59    
Maximum Humidity 77    
Minimum Humidity 40    
Precipitation  
Precipitation 0.00 in 0.13 in 1.23 in (2008)
Month to date precipitation 0.45 0.55  
Year to date precipitation 13.15 17.74  
Sea Level Pressure  
Sea Level Pressure 29.77 in    
Wind  
Wind Speed 5 mph (NNW)    
Max Wind Speed 15 mph    
Max Gust Speed 20 mph    
Visibility 10 miles    
Events      
T = Trace of Precipitation, MM = Missing Value Source: NWS Daily Summary

Daily Weather History Graph

Daily Weather History Graph

Search for Another Location

Airport or City:

Trip Planner

Search our weather history database for the weather conditions in past years. The results will help you decide how hot, cold, wet, or windy it might be!

Date:

Astronomy

Jun. 04, 2012 Rise Set
Actual Time 5:52 AM EDT 8:43 PM EDT
Civil Twilight 5:20 AM EDT 9:15 PM EDT
Nautical Twilight 4:40 AM EDT 9:56 PM EDT
Astronomical Twilight 3:53 AM EDT 10:42 PM EDT
Moon 9:11 PM EDT (6/4) 5:57 AM EDT (6/4)
Length of Visible Light 15h 55m
Length of Day
14h 50m
Full, 100% of the Moon is Illuminated
Jun 4
Full
Jun 11
Last Quarter
Jun 19
New
Jun 26
First Quarter
Jul 3
Full

Hourly Weather History & Observations

Time (EDT) Temp. Dew Point Humidity Pressure Visibility Wind Dir Wind Speed Gust Speed Precip Events Conditions
12:53 AM 63.0 °F 48.0 °F 58% 29.76 in 10.0 mi SW 3.5 mph - N/A   Mostly Cloudy
1:53 AM 60.1 °F 48.9 °F 67% 29.75 in 10.0 mi Calm Calm - N/A   Clear
2:53 AM 60.1 °F 46.9 °F 62% 29.76 in 10.0 mi Calm Calm - N/A   Clear
3:53 AM 59.0 °F 48.0 °F 67% 29.74 in 10.0 mi Calm Calm - N/A   Clear
4:53 AM 55.0 °F 48.9 °F 80% 29.73 in 10.0 mi Calm Calm - N/A   Clear
5:53 AM 55.4 °F 48.2 °F 77% 29.76 in 10.0 mi SSW 3.5 mph - N/A   Clear
6:53 AM 55.0 °F 48.9 °F 80% 29.76 in 10.0 mi Calm Calm - N/A   Clear
7:53 AM 60.1 °F 50.0 °F 69% 29.76 in 10.0 mi Calm Calm - N/A   Scattered Clouds
8:53 AM 62.1 °F 48.0 °F 60% 29.78 in 10.0 mi Variable 3.5 mph - N/A   Mostly Cloudy
9:53 AM 64.0 °F 46.0 °F 52% 29.77 in 10.0 mi Variable 3.5 mph - N/A   Scattered Clouds
10:53 AM 66.0 °F 48.0 °F 52% 29.77 in 10.0 mi NNW 5.8 mph - N/A   Clear
11:53 AM 66.9 °F 48.0 °F 51% 29.76 in 10.0 mi NW 5.8 mph - N/A   Overcast
12:53 PM 68.0 °F 48.0 °F 49% 29.76 in 10.0 mi Variable 6.9 mph - N/A   Mostly Cloudy
1:53 PM 69.1 °F 46.0 °F 44% 29.77 in 10.0 mi Variable 5.8 mph 16.1 mph N/A   Mostly Cloudy
2:53 PM 70.0 °F 45.0 °F 41% 29.76 in 10.0 mi NW 9.2 mph - N/A   Scattered Clouds
3:53 PM 70.0 °F 46.9 °F 44% 29.76 in 10.0 mi North 9.2 mph - N/A   Overcast
4:53 PM 66.0 °F 48.9 °F 54% 29.78 in 10.0 mi North 8.1 mph - N/A   Overcast
5:53 PM 68.0 °F 48.0 °F 49% 29.77 in 10.0 mi NNW 9.2 mph - N/A   Mostly Cloudy
6:53 PM 66.9 °F 48.0 °F 51% 29.77 in 10.0 mi NW 4.6 mph - N/A   Scattered Clouds
7:53 PM 63.0 °F 46.9 °F 56% 29.79 in 10.0 mi North 6.9 mph - N/A   Overcast
8:53 PM 61.0 °F 48.0 °F 62% 29.80 in 10.0 mi North 4.6 mph - N/A   Mostly Cloudy
9:53 PM 59.0 °F 48.0 °F 67% 29.81 in 10.0 mi North 8.1 mph - N/A   Scattered Clouds
10:53 PM 57.9 °F 48.9 °F 72% 29.82 in 10.0 mi North 4.6 mph - N/A   Mostly Cloudy
11:53 PM 57.9 °F 48.9 °F 72% 29.82 in 10.0 mi North 6.9 mph - N/A   Overcast